www.pogodaiklimat.ru

Погода и климат >> Архив погоды >> Казахстан >> Кишкенеколь


АРХИВ ПОГОДЫ в Кишкенеколе

Время (UTC), дата Ветер
(напр.,м/с)
 
Видим.   Явления Облачность Т
(С)
Тd
(С)
f
(%)
Тe
(С)
Тes
(С)
Комфортность P
(гПа)
Po
(гПа)
Тmin
(С)
Tmax
(С)
R
(мм)
R24
(мм)
S
(см)
00 9.09 С 2 н/о 8/8 1000 м
[Sc]
+10.0 +7.9 87 +8 +8 1015.0 998.7
03 9.09 СВ 2 20 км {дождь} 6/0
[Ac As]
+11.2 +9.2 87 +10 +11 1015.8 999.5
06 9.09 С 2 20 км {дождь} 6/0
[Ac As]
+15.6 +10.3 71 +16 +20 1015.4 999.4 +9.4 0.3
09 9.09 СВ 2 20 км слаб. ливневой дождь, в посл. час гроза 9/9 600 м
[Cb cap]
+19.1 +10.6 58 +21 +21 комфорт 1014.9 999.1
12 9.09 СЗ 4 20 км {гроза, ливн. осадки} 8/8 1000 м
[Cu med, cong Ac As]
+16.7 +9.7 63 +16 +16 1014.8 998.9
15 9.09 С 4 н/о слаб. дождь 10/10 1000 м
[Sc diur, vesp]
+12.9 +10.2 84 +11 +11 1016.6 1000.4 +19.5
18 9.09 С 2 н/о {гроза, ливн. осадки} 10/10 600 м
[Cb cap]
+10.7 +9.3 91 +9 +9 1017.1 1000.8 +19.5 7
21 9.09 С 2 н/о 10/10 600 м
[Cb cap]
+9.5 +7.8 89 +8 +8 1017.3 1000.9
00 10.09 С 4 н/о 9/9 600 м
[Sc]
+8.5 +7.4 93 +5 +5 1018.7 1002.2
03 10.09 С 3 20 км 6/0
[Ac As]
+10.0 +8.4 90 +8 +9 1019.7 1003.3
06 10.09 С 2 20 км 6/6 1000 м
[Cu med, cong]
+14.6 +10.4 76 +14 +18 1020.9 1004.8 +8.5 17
09 10.09 СЗ 4 20 км 8/8 1000 м
[Cu med, cong]
+16.8 +6.1 49 +16 +17 1021.1 1005.1
12 10.09 СЗ 6 20 км {дождь} 8/8 1000 м
[Sc]
+16.3 +10.0 66 +15 +15 1021.9 1005.8
15 10.09 СЗ 3 н/о 6/0
[Ac As]
+14.0 +9.1 72 +13 +13 1022.7 1006.5 +17.2
18 10.09 штиль 0 н/о 8/0
[Cs]
+6.8 +5.9 94 +6 +6 1024.4 1007.7 +17.2 0.0
21 10.09 З 2 н/о 10/0
[As op]
+6.2 +5.8 97 +4 +4 1024.0 1007.3
00 11.09 З 4 н/о 10/0
[As op]
+7.3 +6.4 94 +4 +4 1023.5 1006.9
03 11.09 З 5 20 км 9/0
[Ac As]
+8.6 +7.1 90 +5 +5 1023.9 1007.4
06 11.09 СЗ 6 20 км 9/9 1000 м
[Cu med, cong]
+12.2 +8.1 76 +10 +10 1024.8 1008.5 +6.2
09 11.09 С 6 20 км 8/8 1000 м
[Cu med, cong]
+15.0 +6.8 58 +13 +14 1026.2 1010.0
12 11.09 СЗ 4 20 км 6/6 1000 м
[Cu hum]
+15.2 +6.5 56 +14 +15 1027.7 1011.5
15 11.09 СЗ 2 н/о ясно +10.0 +5.6 74 +9 +9 1029.8 1013.2 +15.6
18 11.09 штиль 0 н/о ясно +6.8 +2.9 76 +6 +6 1030.8 1014.0 +15.6
21 11.09 штиль 0 н/о ясно +4.1 +3.6 97 +3 +3 1031.3 1014.4
00 12.09 штиль 0 н/о ясно +2.6 +2.4 99 +1 +1 1031.3 1014.3
03 12.09 ЮЗ 1 20 км 6/0
[Ci ing]
+4.4 +3.9 97 +3 +5 1030.7 1013.8
06 12.09 З 5 20 км 8/0
[Ac As]
+15.0 +11.0 77 +14 +15 1028.2 1012.0 +2.6
09 12.09 З 5 20 км 8/8 1000 м
[Cu hum]
+18.7 +13.2 70 +19 +20 1025.6 1009.6
12 12.09 З 6 20 км 9/9 1000 м
[Cu hum]
+16.9 +12.6 76 +16 +16 1023.4 1007.4
15 12.09 З 3 н/о 9/9 1000 м
[Cu hum]
+13.8 +10.3 79 +13 +13 1022.8 1006.6 +19.0
18 12.09 З 4 н/о 10/10 1000 м
[Sc]
+13.4 +10.7 84 +12 +12 1021.1 1004.9 +19.0
21 12.09 З 4 н/о 8/8 1000 м
[Sc]
+10.6 +8.1 85 +8 +8 1020.3 1003.9
00 13.09 З 4 н/о 10/0
[Ac und]
+10.8 +8.4 85 +8 +8 1020.6 1004.2
03 13.09 СЗ 4 10 км слаб. морось 10/10 600 м
[St]
+12.2 +10.5 89 +10 +10 1020.8 1004.5
06 13.09 СЗ 4 20 км {дождь} 9/9 1000 м
[Sc]
+14.2 +11.6 84 +13 +13 1021.4 1005.2 +10.6 0.0
09 13.09 З 6 20 км 8/8 1000 м
[Cu med, cong]
+15.1 +11.0 76 +13 +14 1021.7 1005.6
12 13.09 СЗ 4 20 км 8/8 1000 м
[Sc]
+15.4 +10.0 70 +14 +15 1021.5 1005.4
15 13.09 С 2 н/о 6/0
[Ac As]
+12.3 +9.5 83 +11 +11 1022.3 1006.0 +15.8
18 13.09 штиль 0 н/о ясно +7.6 +5.8 88 +7 +7 1022.2 1005.6 +15.8 0.0
21 13.09 Ю 2 н/о ясно +6.4 +5.3 93 +4 +4 1021.5 1004.9
00 14.09 Ю 2 н/о 3/0
[Ac As]
+5.9 +5.0 94 +3 +3 1020.5 1003.9
03 14.09 С 3 20 км 9/9
[Cu hum Ac As]
+10.0 +7.9 87 +8 +8 1020.1 1003.7
06 14.09 З 5 20 км 8/8 1000 м
[Cu med, cong]
+17.8 +11.6 67 +17 +18 1019.2 1003.3 +5.9
09 14.09 З 5 20 км 9/9 1000 м
[Cu med, cong]
+22.4 +11.3 49 +25 +25 комфорт 1018.2 1002.5
12 14.09 СЗ 4 20 км 3/3 1000 м
[Cu med, cong]
+21.8 +9.1 44 +23 +24 комфорт 1017.6 1001.9
15 14.09 З 1 н/о 3/0
[Ac As]
+16.6 +11.9 74 +17 +17 1018.2 1002.2 +22.9
18 14.09 З 2 н/о 3/0
[Ci ing]
+11.8 +9.2 84 +11 +11 1018.8 1002.5 +22.9
21 14.09 ЮЗ 2 н/о 3/0
[Ci ing]
+10.0 +8.1 88 +8 +8 1018.7 1002.3
00 15.09 ЮЗ 1 н/о 3/0
[Ci ing]
+9.2 +8.0 92 +8 +8 1018.8 1002.4
03 15.09 З 2 20 км ясно +11.0 +9.8 92 +10 +12 1018.8 1002.5
06 15.09 З 3 20 км ясно +21.8 +12.3 55 +24 +30 комфорт 1018.2 1002.5 +9.2
09 15.09 З 4 20 км 4/4 1000 м
[Cu med, cong]
+24.6 +9.7 39 +25 +28 комфорт 1017.0 1001.5
12 15.09 З 2 20 км 3/3 1000 м
[Cu med, cong]
+22.4 +10.9 48 +24 +25 комфорт 1016.8 1001.2
18 15.09 Ю 2 н/о ясно +12.8 +6.0 63 +12 +12 1017.8 1001.6 +25.0

 

Местоположение метеостанции Кишкенеколь (Северо-Казахстанская область, Казахстан): широта 53.63 долгота 72.37 высота над уровнем моря 138 м.

В архиве по умолчанию представлена погода в Кишкенеколе за последнюю неделю. Архивные данные за месяц целиком и за предыдущие месяцы, начиная с января 2011 года, Вы можете получить, выбрав интересующий диапазон дат из раскрывающегося списка и нажав кнопку "Ввод!".


*Определитесь, кто Вы:
робот инопланетянин человек

Внимание! Время в таблицах - всемирное. Для получения местного времени необходимо прибавить поправку, которая равна 5 ч.

Смотрите также архив погоды в соседних городах и на ближайших метеорологических станциях:

Погода в Явленке (Северо-Казахстанская область, Казахстан) (48 км)
Погода в Кызылту (Северо-Казахстанская область, Казахстан) (58 км)
Погода в Одесском (Омская область, Россия) (75 км)
Погода в Полтавке (Омская область, Россия) (92 км)
Погода в Русской Поляне (Омская область, Россия) (101 км)
Погода в Павлоградке (Омская область, Россия) (101 км)
Погода в Щербакуле (Омская область, Россия) (111 км)
Погода в Чкалово (Северо-Казахстанская область, Казахстан) (128 км)
Погода в Возвышенке (Северо-Казахстанская область, Казахстан) (130 км)
Погода в Голубовке (Павлодарская область, Казахстан) (133 км)

Пояснения к столбцам:

Ветер - указаны скорость ветра в м/с - средняя за 10 мин, порывы в срок и между сроками (в фигурных скобках) и направление, откуда дует ветер: С - северный, СВ - северо-восточный, В - восточный, ЮВ - юго-восточный, Ю - южный, ЮЗ - юго-западный, З - западный, СЗ - северо-западный.
Видимость - горизонтальная дальность видимости в метрах или километрах. При видимости от 1 до 10 км при отсутствии осадков обычно наблюдается дымка, при ухудшении видимости до 1 км и менее - туман. В сухую погоду видимость может ухудшаться дымом, пылью или мглою.
Явления - указаны атмосферные явления, наблюдавшиеся в срок или в последний час перед сроком; фигурными скобками обозначены явления, наблюдавшиеся между сроками (за 1-3 часа до срока); квадратными скобками обозначены град или гололедные отложения с указанием их диаметра в мм.
Облачность - указаны через наклонную черту общая и нижняя облачность в баллах и высота нижней границы облаков в метрах; квадратными скобками обозначены формы облаков: Ci - перистые, Cs - перисто-слоистые, Cc - перисто-кучевые, Ac - высококучевые, As - высокослоистые, Sc - слоисто-кучевые, Ns - слоисто-дождевые, Cu - кучевые, Cb - кучево-дождевые. Подробнее классификацию облаков см. в Атласе облаков (PDF).
T - Температура воздуха - температура, измеренная на высоте 2 м над землей.
Td - Температура точки росы - температура, при понижении до которой содержащийся в воздухе водяной пар достигнет насыщения.
f - Относительная влажность воздуха - влажноcть воздуха, измеренная на высоте 2 м над землей.
Te - Эффективная температура - температура, которую ощущает одетый по сезону человек в тени. Характеристика душности погоды. При расчете учитывается влияние влажности воздуха и скорости ветра на теплоощущения человека.
Tes - Эффективная температура на солнце - температура, которую ощущает человек, с поправкой на солнечный нагрев. Характеристика знойности погоды. Зависит от высоты солнца над горизонтом, облачности и скорости ветра. Ночью, в пасмурную погоду, а также при ветре 12 м/с и более поправка равна нулю.
P - Атмосферное давление - приведенное к уровню моря атмосферное давление.
Po - Атмосферное давление - измеренное на уровне метеостанции атмосферное давление.
Tmin - Минимальная температура - минимум температуры воздуха на высоте 2 м над землей.
Tmax - Максимальная температура - максимум температуры воздуха на высоте 2 м над землей.
R - Количество осадков - Количество выпавших осадков за период времени, мм. При наведении курсора мыши на число - период времени, за который выпало указанное количество осадков.
R24 - Количество осадков - Количество выпавших осадков за 24 часа, мм.
S - Снежный покров - Высота снежного покрова, см. При наведении курсора мыши на число - состояние снежного покрова и степень покрытия местности в баллах.